Theta_e
350 351 351 350 350 350 350 350 350 350 350 349 349 348 348 345 343 341 340 339 339 339 339 339 335 332 333 336 339 340 341 343 343 342 343 345 346 347 347 345 344 342 339 338 338 338 339 341 343 345 348 348 346 345 345 344 347 347 343 344 345 342 339 341 341 340 341 339 338 337 337 337 338 338 338 338 338 338 338 337 335 335 331 327 330
350 350 350 350 350 350 350 350 349 349 350 349 349 349 348 347 344 341 340 341 343 342 341 340 335 333 333 335 339 341 341 343 342 342 343 344 344 346 347 346 344 342 340 339 338 338 338 340 342 343 347 348 347 346 346 346 346 347 344 343 346 345 339 338 339 339 340 339 337 337 338 339 339 339 339 338 338 339 339 337 337 335 332 329 329
350 350 350 350 350 350 350 350 350 350 350 350 349 349 349 349 347 344 343 344 346 343 340 337 335 334 333 335 340 341 341 342 341 342 344 343 344 345 347 348 346 344 342 339 338 338 338 339 341 342 345 347 347 346 346 346 346 346 344 343 344 345 342 339 339 339 339 338 337 338 339 339 339 339 338 338 338 339 339 338 337 335 334 332 331
350 350 350 351 350 350 351 351 351 350 350 351 350 350 350 349 349 347 345 345 346 344 340 337 336 335 335 338 341 343 343 345 345 345 344 343 343 344 346 348 348 346 344 341 338 337 337 338 340 340 342 345 346 346 345 346 346 345 344 343 342 342 341 340 339 338 338 338 337 337 338 338 338 337 336 337 338 339 339 339 338 336 335 333 333
349 350 350 350 350 350 351 351 351 351 351 351 351 350 350 350 349 349 347 346 347 346 343 340 337 336 337 341 345 346 347 349 348 346 345 344 342 343 344 347 348 348 346 343 339 337 337 337 339 339 340 343 345 345 345 345 346 346 345 343 342 339 338 339 338 337 337 337 337 337 337 337 336 335 335 337 338 338 338 339 338 337 335 335 334
349 350 350 350 350 350 351 351 351 351 352 351 351 351 350 350 350 349 348 347 347 347 346 343 340 337 338 343 346 347 348 349 348 344 341 341 340 340 343 345 347 348 347 345 342 339 336 336 338 338 339 341 344 344 344 345 345 346 345 344 343 340 336 336 337 337 335 336 337 335 335 336 335 334 336 337 338 338 338 339 339 338 336 335 335
350 350 350 350 350 350 350 351 351 351 351 351 351 351 351 351 350 349 349 348 348 348 348 347 344 340 339 341 343 343 345 345 343 340 339 337 338 339 342 345 346 348 348 347 344 341 338 337 337 339 339 340 343 344 345 345 344 344 344 344 344 344 340 337 337 337 335 336 337 335 335 336 334 334 336 338 337 337 338 338 338 337 336 335 335
350 350 351 350 350 350 350 351 351 351 351 351 351 351 351 351 351 350 349 349 348 349 349 349 348 344 341 341 342 341 341 340 340 339 339 338 339 339 342 344 345 347 348 347 346 344 341 339 338 339 339 340 343 345 345 344 343 343 344 344 344 345 343 338 337 338 337 335 335 334 336 336 335 334 335 337 337 337 337 337 338 337 336 335 335
350 350 350 351 350 351 351 350 351 351 351 351 351 351 350 351 351 351 350 350 349 350 350 350 349 346 343 343 343 341 339 340 340 340 339 340 341 340 341 344 345 346 346 346 346 345 343 341 340 339 339 341 343 344 345 344 343 343 343 344 345 344 342 336 334 337 337 335 335 335 337 338 336 334 336 337 336 337 337 335 336 336 335 335 335
351 351 350 350 350 350 350 350 351 351 351 351 350 351 350 351 351 351 351 351 350 350 350 350 350 349 346 345 344 341 340 342 342 342 341 340 341 341 341 342 344 344 344 345 345 345 343 341 341 340 340 341 343 344 344 343 343 343 343 344 346 344 342 338 336 337 337 336 335 336 338 340 338 336 336 337 337 337 337 335 335 335 335 335 335
351 351 350 350 350 350 350 350 350 351 351 351 351 350 351 351 351 351 351 351 351 351 350 351 351 351 349 348 345 342 340 341 343 343 342 341 341 341 340 341 340 341 341 343 344 344 344 341 340 340 340 341 343 344 344 343 343 343 344 345 346 345 344 342 340 339 337 337 336 336 338 339 339 337 336 336 337 337 337 335 335 335 335 335 335
351 350 351 351 351 350 351 351 350 350 351 351 351 351 351 351 351 352 351 351 352 351 351 350 351 351 350 350 348 344 342 341 341 341 340 340 339 339 340 339 339 339 339 340 341 342 342 340 339 340 340 340 342 344 344 344 343 344 344 345 346 345 344 344 343 342 340 337 333 334 337 339 339 339 338 336 336 336 336 335 335 336 335 334 335
351 351 350 351 351 351 351 351 351 351 351 351 351 351 351 351 351 351 352 351 352 351 350 351 351 351 351 351 349 347 344 342 340 339 339 338 338 339 339 339 338 338 337 336 337 338 339 338 338 339 339 339 341 343 344 344 344 344 345 345 345 345 345 345 344 343 342 338 333 333 334 338 339 340 339 337 336 337 336 336 336 336 335 335 335
350 351 351 351 350 350 351 351 351 351 351 351 352 352 352 352 352 351 351 352 352 351 351 351 350 350 349 350 350 349 346 344 341 340 338 337 338 338 338 337 338 336 336 334 334 335 336 336 336 337 338 338 340 343 343 344 344 344 345 344 345 345 346 346 344 343 342 340 338 335 333 335 339 340 340 338 337 337 336 337 338 337 335 336 336
350 351 351 351 351 351 350 350 351 351 351 352 351 352 352 352 352 351 351 352 351 351 351 351 350 349 349 350 350 349 348 345 343 341 339 337 338 338 337 337 337 336 336 335 334 334 334 336 336 336 337 338 338 341 344 344 344 344 344 344 344 345 346 346 345 343 342 340 339 337 333 333 336 339 339 339 337 337 337 337 337 338 337 337 336
350 351 351 351 351 350 351 351 351 351 351 351 351 352 352 352 352 352 351 351 351 351 352 351 350 350 350 350 349 349 348 346 345 342 340 338 338 337 337 337 337 336 336 335 334 333 333 335 336 336 337 338 337 338 342 344 344 343 343 343 344 345 346 346 345 344 343 341 339 338 335 333 334 336 337 336 336 336 337 337 338 338 339 338 337
349 351 351 351 351 350 351 350 350 351 350 351 352 352 352 352 352 351 351 351 351 351 351 350 350 350 350 351 350 349 348 346 344 342 341 339 338 338 338 337 336 336 336 334 334 333 333 334 336 336 337 339 337 336 338 341 343 344 343 343 344 345 346 347 346 345 344 343 341 340 337 333 332 334 333 332 331 334 337 337 336 337 338 338 338
348 350 350 350 351 351 351 350 350 351 351 351 352 352 352 352 352 352 351 352 351 351 351 350 349 350 350 351 350 349 347 346 344 343 341 340 339 338 338 338 337 336 335 333 333 333 333 335 336 335 336 337 338 337 336 337 340 342 343 343 343 344 345 345 347 347 346 344 342 341 339 335 332 331 330 328 327 329 334 337 336 336 337 339 338
348 349 350 350 350 350 351 351 350 351 350 350 351 351 352 352 352 352 352 351 352 351 351 350 350 349 349 349 349 349 346 345 344 343 342 341 339 339 338 338 337 337 336 333 332 332 334 336 336 335 335 337 337 338 337 337 337 339 341 342 343 344 343 344 345 346 346 346 344 342 340 338 336 333 330 328 327 328 332 335 336 336 337 339 339
348 349 350 350 351 350 350 350 350 350 350 350 351 351 352 352 352 352 352 351 351 351 350 350 350 349 350 349 349 349 347 346 344 344 343 341 339 338 338 337 337 336 336 334 332 332 334 335 335 335 335 336 337 338 338 338 337 338 338 340 341 342 343 342 343 344 346 346 346 344 342 340 339 338 335 331 329 329 331 332 333 335 338 339 340
348 349 350 349 350 350 350 350 350 350 350 350 351 352 351 352 352 352 353 352 352 351 351 351 350 350 350 349 349 349 347 346 346 344 343 340 338 337 336 336 337 335 335 334 332 332 334 334 333 333 334 335 336 338 339 339 339 338 338 339 340 341 341 341 341 342 343 344 345 345 344 342 341 340 340 337 332 330 331 332 333 336 339 339 340
348 349 350 350 350 350 350 350 351 350 350 350 351 351 351 352 352 352 352 352 352 351 351 351 350 350 350 350 349 348 346 346 346 344 342 339 337 336 335 336 336 335 334 333 331 331 333 334 333 332 332 333 335 335 337 338 339 339 339 338 339 339 339 340 340 340 340 341 343 343 343 343 343 342 342 341 338 333 331 333 336 338 338 338 339
348 348 349 351 350 350 350 351 351 350 350 350 350 351 351 351 351 352 352 352 352 352 351 351 351 350 350 350 350 349 347 346 346 345 342 339 337 336 336 336 335 334 333 332 331 331 332 333 333 332 332 333 333 334 334 336 337 337 338 337 337 337 338 338 338 339 338 339 340 340 340 340 342 342 341 341 341 338 333 331 333 336 337 337 338
348 348 349 351 350 351 351 351 351 350 350 350 351 351 351 351 351 351 351 351 351 351 351 351 351 350 350 351 350 350 349 347 347 345 342 339 338 336 337 336 335 334 333 331 330 331 331 332 333 332 332 332 332 333 333 333 334 335 335 335 335 335 335 335 336 336 336 336 336 336 337 337 339 340 340 340 340 340 338 334 331 332 333 335 335
347 348 349 351 351 352 351 351 351 351 350 350 350 351 351 351 351 351 351 351 351 351 351 351 351 351 351 351 351 351 350 349 348 346 343 340 339 338 337 336 335 335 333 332 331 330 331 331 332 331 331 330 331 332 332 333 332 332 332 333 332 332 333 333 333 334 333 334 334 333 333 335 336 337 338 338 339 339 339 338 335 333 332 332 333
346 347 349 350 351 352 351 351 352 351 351 351 351 351 352 351 352 351 351 351 351 351 351 351 351 351 351 351 351 352 351 351 350 348 345 342 340 339 337 336 335 334 333 332 331 331 331 330 331 331 330 329 330 331 331 331 331 331 331 331 332 331 331 331 331 332 332 332 332 332 332 333 334 335 334 335 336 338 338 339 339 338 336 335 334
347 348 349 350 350 351 351 352 352 351 351 351 350 351 351 352 352 352 352 352 352 352 352 352 352 352 352 352 351 352 352 351 351 349 347 345 343 340 338 336 335 334 333 332 332 331 330 330 330 331 330 329 330 330 330 331 331 331 331 330 331 331 330 331 331 331 332 332 332 332 333 332 333 333 333 332 333 334 336 337 337 338 339 339 338
348 347 348 350 351 350 351 351 352 352 351 351 351 351 352 352 352 353 353 353 352 353 352 352 352 352 352 352 352 352 352 352 351 350 349 347 345 343 341 338 336 335 334 332 331 331 330 330 330 330 330 329 330 330 331 331 331 331 331 330 330 330 330 330 330 331 332 332 332 333 333 333 333 333 333 333 333 333 333 334 334 336 338 340 340
348 348 349 350 351 351 351 352 351 352 351 351 351 351 352 352 353 353 354 353 353 354 353 353 353 353 352 351 352 352 352 352 352 352 350 349 347 345 344 342 340 337 335 333 332 331 330 329 329 329 329 329 330 330 330 330 331 331 331 331 330 330 330 330 331 331 332 332 333 333 333 333 334 333 333 333 334 333 334 334 333 334 335 338 339
347 348 349 349 350 351 351 351 352 351 352 352 351 352 352 352 353 353 354 354 354 354 354 354 353 353 353 352 353 353 353 353 352 352 351 350 349 347 346 344 343 340 336 335 333 332 331 330 329 329 329 329 329 330 330 331 331 331 330 331 331 331 331 331 331 331 332 332 333 333 333 334 335 336 336 336 335 335 335 335 335 335 335 335 337
347 348 349 349 350 351 351 351 352 351 351 352 351 352 351 351 353 353 354 354 355 355 355 355 354 353 353 354 354 353 353 354 353 353 353 353 351 350 348 346 345 342 339 336 335 334 332 330 330 329 328 329 329 329 330 330 331 330 331 331 332 331 332 332 333 333 333 333 334 334 334 335 337 338 338 338 338 338 338 338 338 337 337 336 337
347 347 348 349 349 350 351 351 351 352 351 351 351 351 351 352 353 353 354 355 355 356 356 355 355 354 354 354 354 354 354 354 354 354 355 355 354 352 351 349 347 345 342 339 337 335 333 332 331 330 329 329 329 329 330 330 331 331 331 332 332 332 333 333 334 335 334 335 336 338 338 339 340 340 340 341 341 341 341 342 342 341 342 341 340
347 347 348 349 349 350 350 351 350 351 350 349 350 351 351 351 352 353 354 354 355 356 356 356 355 354 355 355 354 355 355 355 355 356 357 357 356 355 354 352 351 348 346 343 340 337 334 334 333 331 330 330 329 330 330 330 331 331 331 332 333 334 335 335 336 336 336 337 339 340 342 342 342 343 343 344 343 344 344 345 345 345 345 345 345
345 347 348 348 348 349 350 351 351 350 350 350 350 350 350 351 352 353 353 354 355 355 356 356 354 353 354 354 354 355 355 356 357 357 358 358 357 357 356 355 353 352 350 347 343 338 336 335 334 333 333 331 331 331 330 331 332 332 332 333 334 336 337 338 338 338 339 340 341 343 344 344 344 346 346 347 347 347 348 348 348 349 348 348 348
345 347 348 347 348 349 349 350 350 351 351 351 351 352 352 352 352 353 353 353 354 354 354 354 353 353 353 354 355 356 357 358 359 359 359 359 359 358 358 357 356 355 353 351 347 342 338 335 334 334 334 333 332 331 332 332 332 332 334 336 337 339 340 340 340 341 342 342 344 345 345 346 346 347 348 348 349 349 350 351 351 351 351 351 351
345 346 347 347 348 348 349 349 350 351 351 351 352 352 352 353 353 353 353 353 354 354 353 353 353 354 354 355 357 357 359 359 360 360 360 360 360 360 360 359 359 357 356 355 352 347 341 336 335 335 335 334 332 333 333 332 333 334 336 339 340 342 342 342 342 343 343 345 345 346 347 347 348 349 349 349 350 351 352 353 353 353 354 354 354
345 346 346 347 347 348 348 349 349 351 351 351 351 352 352 353 354 353 353 353 354 354 354 353 355 356 356 357 358 359 359 360 360 360 361 360 361 361 361 361 360 359 358 357 355 351 347 342 339 337 336 335 333 333 334 333 334 336 339 341 342 342 344 343 344 344 344 346 347 347 348 349 349 350 350 351 352 352 354 354 355 355 356 356 356
348 348 347 347 348 348 348 348 349 350 351 351 351 351 352 353 353 354 355 355 355 356 356 356 357 357 358 358 358 359 359 360 361 361 361 361 361 362 362 362 362 361 361 359 358 355 353 349 346 342 340 338 336 334 336 336 336 338 341 342 343 343 344 345 344 346 347 347 348 348 350 351 352 352 352 353 354 355 356 356 356 357 357 357 358
354 352 351 351 351 350 351 350 351 351 352 351 351 351 351 352 353 353 355 355 356 356 357 357 358 357 358 358 359 359 360 361 361 361 362 361 362 362 362 362 362 362 361 360 360 359 357 355 353 350 347 345 343 340 339 339 339 340 341 343 345 345 346 346 347 348 349 350 350 351 352 353 353 354 354 355 355 356 357 358 358 358 359 359 359
360 359 357 357 356 356 356 356 355 357 358 356 355 356 355 355 356 355 355 356 356 356 356 357 357 357 358 359 359 360 360 361 362 362 362 362 362 362 362 362 362 362 362 361 361 360 359 358 356 355 353 351 349 347 346 344 343 343 343 344 346 347 348 348 349 349 350 350 351 351 353 353 354 355 356 356 357 357 359 359 360 360 360 361 361
356 358 358 359 359 358 359 359 359 360 360 359 359 358 358 359 360 359 360 360 360 359 359 358 359 359 360 360 359 360 361 361 362 362 362 362 362 362 362 362 362 362 362 362 361 361 360 359 358 357 355 354 353 351 350 350 348 347 347 347 348 348 349 349 350 351 352 352 352 353 354 355 356 357 358 359 359 360 360 360 361 361 361 362 361
350 349 350 351 352 352 352 353 354 357 358 359 360 360 360 359 360 361 362 361 362 362 362 361 362 361 361 362 361 361 362 362 363 362 362 363 363 362 362 362 362 362 361 362 361 361 361 360 359 358 357 356 356 354 353 352 352 351 350 350 350 350 350 351 352 353 353 354 354 355 357 358 359 359 360 360 361 361 362 362 362 362 362 362 361
352 348 343 338 338 339 340 340 340 342 346 349 353 356 358 359 358 358 359 359 360 361 361 361 362 361 361 362 362 362 363 363 363 363 362 363 363 362 362 362 362 362 362 362 362 361 361 361 359 359 358 357 357 356 355 355 355 353 353 353 352 353 353 353 354 355 356 356 358 358 360 360 361 361 362 362 362 362 362 362 362 362 362 362 362
355 354 349 340 335 335 336 335 334 334 333 334 337 341 346 351 354 356 356 356 356 357 357 357 358 358 359 359 360 360 361 361 362 362 363 363 363 363 363 362 362 362 362 361 361 361 361 361 360 359 359 358 358 358 357 357 356 356 355 355 355 355 355 356 357 358 358 360 360 360 361 361 361 362 362 362 363 362 362 363 362 363 363 362 363
354 355 353 350 349 346 344 342 341 339 335 333 332 333 335 340 344 348 351 353 353 352 352 352 353 355 355 356 356 356 357 357 358 359 360 361 361 361 362 362 362 362 362 361 361 362 362 361 360 360 360 359 359 359 359 358 358 358 357 358 357 357 358 359 360 361 361 360 360 361 361 362 361 362 362 363 363 363 363 363 363 363 362 362 362
352 352 352 352 352 350 348 347 345 342 340 337 335 334 335 338 341 343 345 346 348 349 349 348 348 350 351 355 355 354 354 355 355 356 357 357 359 359 360 361 361 362 362 362 362 362 362 361 361 361 361 361 360 360 360 360 360 360 360 360 360 360 360 361 361 361 361 361 362 362 363 363 363 363 364 364 365 364 364 364 364 363 363 362 361
349 349 350 350 350 349 348 347 345 344 343 341 340 339 338 341 344 347 348 349 349 350 350 349 349 349 350 353 354 354 354 355 354 355 356 356 358 359 361 361 361 361 362 362 362 362 362 362 362 362 362 361 361 362 362 362 363 363 363 363 363 362 362 362 362 362 362 363 364 363 364 364 364 364 364 365 365 365 364 363 363 361 361 360 360
348 348 348 347 347 346 346 345 344 343 342 341 342 341 340 340 342 344 348 351 354 355 355 354 354 353 354 355 355 355 355 355 355 356 356 358 359 360 361 362 362 362 363 363 363 363 363 363 363 363 363 363 363 364 364 364 365 365 365 364 364 363 363 363 362 363 363 364 364 364 364 364 364 364 365 364 364 363 361 361 360 359 359 357 353
346 348 347 347 347 345 344 343 343 343 342 341 340 342 341 340 339 339 341 345 350 355 359 359 357 357 357 357 357 358 358 357 356 355 356 357 359 360 362 362 363 364 364 364 364 364 364 365 364 365 364 365 365 365 365 365 364 364 364 364 364 365 364 363 364 363 364 364 363 363 363 362 362 362 362 362 361 360 359 358 356 355 351 347 341
344 346 347 347 348 347 346 345 345 344 342 341 341 342 343 343 343 342 341 342 347 352 358 361 362 361 358 358 359 359 358 358 358 357 357 357 359 359 362 363 364 365 365 366 366 366 365 366 367 366 366 367 366 366 365 365 365 365 364 364 365 365 365 364 363 363 363 362 362 362 361 361 361 360 359 359 357 356 353 351 347 343 338 334 330
341 343 345 346 346 346 346 346 346 345 344 343 343 344 345 346 348 348 348 349 351 353 356 360 364 364 361 360 361 361 360 359 359 359 359 359 359 360 362 364 365 365 366 366 366 366 366 366 367 367 367 367 366 365 366 365 366 365 366 366 366 366 365 365 364 363 362 362 361 361 360 359 357 355 353 351 347 344 341 338 334 332 330 328 328
Wind_Speed
44 44 45 44 44 44 43 43 42 42 42 40 40 39 39 40 41 41 40 39 38 37 37 36 35 33 32 30 29 27 25 23 22 21 20 19 18 16 15 15 14 13 11 12 13 12 11 11 10 9 8 7 5 4 4 4 5 5 6 8 9 10 9 8 8 8 7 7 9 11 10 8 6 5 4 3 2 2 4 5 6 7 8 7 3
39 42 44 44 44 44 44 44 44 44 43 42 41 39 38 39 40 40 40 39 38 38 38 38 37 35 34 32 30 28 26 25 24 23 21 21 19 17 15 13 14 14 12 13 13 12 12 11 10 9 8 7 6 5 5 6 6 7 7 9 10 10 10 9 8 6 6 7 9 11 11 8 6 5 4 2 2 2 2 2 4 6 6 7 6
38 42 44 44 45 45 45 45 46 45 44 43 41 39 39 39 39 40 40 39 37 37 38 38 37 35 34 32 30 28 27 25 23 22 22 21 20 18 15 13 13 14 14 14 14 13 12 12 11 10 9 8 7 7 7 7 7 8 8 9 11 12 10 10 10 7 7 8 10 11 12 10 8 7 6 4 4 4 3 1 2 4 5 6 7
43 44 46 45 45 46 48 47 47 46 45 45 43 41 41 40 40 40 40 38 36 36 37 37 36 34 33 32 30 29 27 25 24 23 22 22 21 20 18 15 14 14 14 15 14 14 13 12 12 11 10 9 9 8 7 7 7 8 8 8 11 12 11 11 10 9 9 10 11 12 12 11 10 9 7 6 6 6 5 4 3 3 4 5 6
48 48 49 48 47 48 49 48 48 48 48 47 45 44 43 42 41 40 40 39 37 36 36 36 36 35 34 33 32 31 29 28 28 27 25 25 24 22 20 18 16 15 14 14 14 14 13 12 12 12 11 10 9 8 8 7 8 8 8 8 10 11 12 11 10 8 9 12 12 11 11 11 10 9 8 8 8 8 7 6 6 4 3 3 4
49 51 53 53 52 50 49 49 49 50 50 49 46 45 43 42 42 41 41 40 38 37 36 37 38 38 37 36 35 34 33 32 31 30 28 27 25 23 21 19 18 16 14 14 14 14 14 13 13 12 12 11 9 8 8 9 9 9 8 9 9 10 11 12 9 7 8 11 13 12 11 11 11 10 10 10 10 10 9 8 8 7 5 2 2
48 50 52 53 52 51 51 52 53 53 52 50 48 46 44 43 43 42 42 41 40 38 38 38 39 40 39 39 38 36 35 34 32 30 29 27 25 23 22 21 19 17 16 14 14 14 14 14 13 13 12 12 11 10 10 10 10 9 9 9 9 10 11 13 11 8 9 11 12 13 12 10 11 12 12 11 10 12 12 10 10 10 8 4 2
48 48 49 51 52 53 54 55 55 55 52 51 50 48 46 45 43 42 42 41 41 40 39 39 41 41 41 40 39 38 36 33 31 30 29 28 26 24 23 22 20 19 17 16 15 14 14 14 14 14 13 13 12 11 10 10 10 10 10 10 10 11 11 12 12 12 11 11 12 13 11 9 11 13 13 12 10 11 11 11 12 12 11 8 5
50 50 51 53 54 55 55 56 55 54 52 52 51 49 48 46 45 43 42 41 41 41 41 40 41 42 42 41 40 38 36 33 32 31 30 29 28 26 25 23 21 20 18 17 16 15 15 15 15 14 14 14 13 12 11 11 11 11 11 11 12 12 11 11 13 13 12 12 13 13 11 9 11 13 14 13 12 11 11 11 11 12 12 9 8
48 51 52 54 56 56 55 54 53 53 53 52 51 50 49 48 47 45 43 42 41 41 41 41 41 43 43 43 41 39 37 36 34 32 31 30 29 28 26 25 23 21 19 18 17 17 16 17 16 15 14 14 14 13 13 12 12 12 11 11 12 13 12 12 12 12 12 12 13 13 12 11 12 14 15 16 15 14 13 11 10 12 11 8 7
48 50 51 52 54 55 53 52 52 53 52 52 51 51 50 49 48 47 45 43 42 41 42 42 42 43 44 44 43 41 39 37 36 35 33 31 30 29 27 25 24 22 20 19 18 18 17 18 18 16 15 15 15 15 14 13 13 13 12 12 13 13 14 13 12 12 11 12 13 14 15 13 13 14 16 16 16 15 15 13 11 11 12 10 8
49 50 49 48 49 50 52 52 52 52 52 52 53 52 51 50 50 49 47 45 43 42 42 42 42 43 43 44 44 43 41 39 37 36 34 33 31 30 28 27 25 23 22 21 20 19 19 20 20 18 17 16 16 16 15 14 13 13 13 13 13 13 14 15 14 13 12 12 13 15 17 16 15 15 15 16 16 15 15 14 12 12 13 13 11
47 48 48 48 49 50 52 52 52 52 52 53 53 53 52 51 51 50 49 47 45 43 43 43 43 43 43 43 44 44 42 40 38 36 34 33 32 31 30 29 28 26 24 23 21 20 20 21 21 20 18 17 17 17 16 15 14 14 13 13 14 13 14 15 14 14 13 12 12 14 17 19 18 16 14 15 15 15 15 15 14 14 15 13 12
47 47 48 49 52 52 52 53 53 53 53 53 53 53 53 53 52 51 50 48 47 45 44 43 43 43 42 42 42 43 44 42 39 36 34 33 33 33 32 30 29 27 26 24 22 21 21 21 22 21 19 18 17 17 17 16 16 15 14 14 14 14 14 15 14 14 14 14 13 14 16 19 19 18 17 16 16 16 17 16 14 15 16 15 15
47 48 49 51 53 53 53 54 54 54 54 53 53 54 54 54 53 52 51 49 48 47 45 44 44 43 43 42 41 42 42 42 40 38 36 34 34 34 33 32 30 28 26 24 23 22 21 21 22 22 21 20 19 18 18 18 17 17 16 15 15 15 15 15 15 15 14 14 14 14 15 17 19 20 19 18 18 18 18 17 15 15 15 16 18
47 47 49 50 51 52 53 54 54 55 54 54 55 55 55 55 54 53 51 50 49 48 47 45 44 44 44 43 42 41 41 41 41 39 37 35 34 34 34 32 30 28 26 25 24 24 22 22 23 22 21 21 20 19 19 19 19 19 18 17 16 16 16 16 16 16 15 14 15 15 16 17 18 19 20 21 20 20 19 18 17 16 16 16 18
46 48 50 51 51 52 53 54 54 55 55 56 57 57 57 57 56 55 53 51 49 48 46 45 44 45 45 45 44 42 41 40 40 39 38 36 35 35 34 33 31 29 26 24 24 24 23 23 24 23 22 22 21 21 20 20 20 20 19 19 18 17 17 17 17 17 16 15 15 16 16 16 17 18 19 20 21 21 20 20 19 18 18 17 18
47 50 52 52 52 52 52 53 54 55 57 58 58 58 58 57 57 56 55 53 51 48 46 44 44 45 45 46 46 44 43 41 39 38 38 37 36 35 35 35 33 30 26 24 23 23 23 23 24 23 22 22 22 21 21 21 21 21 21 20 19 19 19 18 18 18 17 17 16 16 16 16 17 18 18 18 20 22 21 21 20 19 19 19 19
46 48 49 50 50 51 52 54 54 55 56 57 57 57 57 57 57 56 55 53 51 49 47 46 45 44 45 45 45 44 43 41 40 39 38 38 37 36 36 36 34 31 28 25 23 22 23 23 23 23 23 23 23 23 22 22 23 23 22 22 21 20 21 20 19 19 18 18 18 18 17 17 17 18 18 18 19 21 22 23 22 21 20 20 19
46 47 48 50 52 52 53 54 54 55 55 55 55 55 55 56 56 56 54 53 52 50 49 47 46 45 44 45 45 45 43 42 41 40 40 39 37 36 36 36 35 33 31 28 25 24 24 23 23 23 23 24 24 24 24 23 24 24 24 23 23 22 22 21 20 20 19 20 20 19 19 18 17 18 19 19 19 21 22 23 23 23 22 22 21
48 48 50 53 54 53 53 53 53 53 52 52 53 54 54 55 55 55 55 54 53 52 50 49 47 45 45 44 45 45 44 43 42 41 41 39 38 37 36 36 36 34 32 30 28 26 26 25 24 23 23 24 25 25 25 25 25 25 25 25 24 24 24 23 21 21 21 21 21 21 20 19 18 19 20 20 21 22 23 24 24 25 24 23 23
49 50 52 54 54 52 51 51 50 49 50 51 52 53 53 54 55 55 54 54 54 53 51 50 48 46 45 44 43 43 43 43 43 42 41 40 39 38 37 37 37 36 33 32 30 28 28 27 27 26 25 25 25 26 26 26 27 27 27 26 25 25 25 25 24 23 22 22 22 22 22 21 21 21 21 21 22 23 25 26 26 27 26 25 25
52 51 51 52 52 51 51 50 49 49 50 51 51 53 53 54 54 54 54 54 54 53 51 50 49 47 45 43 42 42 42 43 43 43 41 40 40 38 38 38 37 36 35 33 32 30 29 29 29 28 27 27 26 26 27 27 27 28 27 27 26 26 26 25 25 24 23 23 23 23 23 22 22 23 23 23 23 23 25 28 29 29 28 27 26
51 50 50 50 49 49 49 50 49 49 50 50 50 52 52 53 53 53 54 54 54 53 51 50 49 47 45 43 43 42 42 43 43 43 42 41 40 40 39 38 37 37 36 35 34 33 32 31 31 30 29 28 27 27 27 28 28 28 28 27 27 26 26 26 25 25 24 23 24 24 23 23 23 25 25 24 25 25 25 27 29 30 30 29 28
48 46 45 45 45 47 50 51 51 51 51 50 51 51 52 52 52 53 53 53 53 52 51 50 49 47 45 44 43 42 42 43 43 43 42 42 41 40 40 39 38 38 37 36 35 35 34 34 33 32 30 29 28 28 28 28 28 28 28 28 27 27 27 26 26 25 25 24 24 24 23 23 24 25 26 25 26 26 26 27 28 30 31 31 31
46 44 44 44 45 49 52 53 52 53 52 51 52 51 51 51 52 52 52 52 52 51 51 50 49 48 47 45 44 43 42 42 42 42 42 42 42 41 40 39 38 38 37 37 37 36 36 35 34 33 32 31 30 29 29 29 28 28 28 28 28 28 28 28 28 27 27 26 26 26 25 25 26 26 26 26 26 26 27 28 29 29 30 31 32
45 45 44 45 46 50 53 53 52 53 53 52 53 52 51 51 51 52 51 51 51 50 50 50 49 48 47 45 44 42 40 40 40 40 41 42 42 42 41 40 38 38 38 37 37 37 36 36 35 34 34 33 32 32 31 31 30 30 30 29 29 29 30 30 30 29 29 29 29 29 29 29 29 28 28 27 27 27 28 29 29 30 30 32 33
42 43 44 45 47 50 52 52 52 52 52 52 52 52 51 51 51 50 50 50 51 50 50 50 49 48 47 45 43 41 40 38 37 38 39 41 42 43 42 41 39 39 38 38 37 37 37 36 36 36 35 35 34 34 34 33 33 32 31 32 31 31 32 31 31 31 31 31 31 32 32 32 32 32 31 30 30 29 30 30 30 31 32 33 34
39 41 44 46 48 50 51 52 51 51 51 51 51 50 49 49 49 49 50 50 50 50 50 50 49 49 47 45 43 41 40 39 37 37 38 40 41 42 42 42 41 40 39 38 38 38 38 38 38 38 37 37 38 37 36 35 35 34 34 33 33 33 33 33 33 33 33 33 33 33 33 34 34 34 34 34 34 33 34 34 33 33 34 35 36
41 43 45 48 49 51 52 52 51 50 51 50 49 50 50 50 50 50 50 50 50 50 50 49 49 49 47 45 43 42 41 40 39 38 37 38 40 41 42 42 43 41 39 38 38 38 39 39 39 39 39 40 40 39 38 37 36 36 35 35 35 35 34 34 34 34 34 34 34 34 34 34 35 35 35 35 36 36 37 37 36 36 37 38 39
43 45 47 49 50 50 50 50 50 51 51 50 50 50 50 50 50 50 50 49 49 49 49 49 48 47 46 45 44 43 42 41 40 39 37 37 37 39 40 41 42 42 40 39 38 39 39 40 40 40 40 41 42 40 39 38 37 37 37 36 36 36 36 36 36 36 36 36 36 36 36 36 36 36 36 36 36 36 36 37 37 37 38 40 41
42 44 46 47 47 47 48 49 51 51 50 51 50 49 49 50 51 50 49 47 47 47 47 47 46 45 45 44 43 43 42 42 41 40 38 37 37 38 39 40 42 42 41 40 40 39 39 40 40 41 42 43 43 41 40 39 38 38 37 38 38 38 38 38 38 38 38 37 38 38 38 37 37 37 36 36 36 36 36 36 36 37 38 39 41
43 44 45 46 46 47 50 51 51 51 51 51 50 49 49 50 50 49 47 46 45 45 45 45 44 44 43 43 42 42 41 41 40 39 38 38 38 39 39 40 40 41 41 41 40 40 39 39 41 42 43 43 43 42 41 41 40 39 38 39 39 39 40 40 40 39 39 39 39 39 39 39 38 37 37 37 37 37 37 37 37 37 38 39 40
39 41 42 44 45 46 48 49 49 49 49 48 48 48 48 47 47 46 45 45 44 43 44 43 43 42 42 41 41 40 40 39 38 37 37 38 38 39 39 39 39 40 41 41 40 40 40 40 41 42 43 43 43 43 42 42 41 40 40 40 41 40 41 41 40 40 40 40 40 40 40 40 38 38 38 37 37 37 37 38 38 38 39 39 39
32 35 37 39 41 42 43 44 45 45 45 45 45 45 44 43 43 43 44 44 43 43 43 42 41 41 40 40 39 39 38 38 37 36 37 37 37 37 37 37 38 39 39 39 39 39 39 39 40 41 42 43 43 42 42 42 42 41 41 42 42 41 41 41 41 41 41 41 41 41 41 40 39 39 38 37 38 38 38 39 40 40 40 40 40
29 33 34 36 38 39 40 41 41 41 42 43 43 42 42 41 41 42 42 42 42 42 42 41 40 39 39 38 38 37 37 36 35 36 36 37 36 35 34 34 35 36 36 37 37 38 38 39 39 40 42 43 42 41 41 41 41 41 42 42 42 41 41 41 41 40 40 40 40 40 41 40 40 39 38 37 37 38 39 41 42 42 42 42 43
26 28 30 31 33 33 33 35 35 36 37 39 39 39 39 39 39 39 39 39 40 41 40 40 39 38 37 37 36 36 35 35 35 36 36 35 34 33 32 32 34 35 34 34 34 35 35 36 38 39 41 42 41 40 40 40 40 41 42 42 42 41 41 41 40 39 39 39 39 39 39 40 40 39 38 36 36 37 40 42 43 44 44 45 45
25 27 27 26 27 26 26 28 30 31 33 35 36 37 37 37 37 37 37 38 39 39 39 39 38 37 36 36 35 35 35 34 35 35 35 34 33 32 31 31 33 33 32 31 30 31 32 33 35 37 38 40 40 38 38 39 39 40 41 41 41 40 40 41 40 39 38 38 38 38 38 39 40 39 38 37 37 38 40 42 43 44 46 47 46
31 30 30 28 27 26 26 27 28 28 29 30 31 32 33 34 34 34 35 37 38 39 39 39 38 37 36 36 36 36 35 35 35 34 33 32 31 30 30 31 33 33 32 31 30 31 31 31 32 34 36 38 38 37 37 38 39 39 39 39 39 39 40 40 39 38 38 38 38 38 38 39 39 39 38 38 37 38 40 42 42 44 48 49 46
36 35 35 34 33 32 31 29 28 26 24 23 25 25 27 28 29 30 32 34 35 37 37 39 39 39 38 38 38 37 37 35 34 33 31 31 31 31 31 32 34 34 33 33 33 33 33 31 31 33 34 35 36 35 35 36 37 37 37 37 38 39 39 39 38 38 38 37 38 38 38 37 37 37 37 37 37 38 40 41 42 45 49 48 45
34 34 35 36 35 34 33 30 28 26 24 22 21 22 24 25 25 27 30 32 34 36 37 39 41 41 41 40 40 39 38 36 34 33 32 32 32 32 32 32 33 33 34 34 34 34 35 33 32 33 34 34 34 33 33 33 34 34 35 35 36 37 37 37 37 37 37 37 37 37 36 35 35 35 35 35 35 36 38 40 43 45 46 45 45
29 29 31 32 32 31 29 26 24 22 22 21 20 21 22 21 22 23 24 25 27 30 33 36 39 40 41 41 41 40 39 37 36 35 35 35 35 34 34 34 34 34 35 35 35 35 36 36 35 34 34 34 33 33 33 32 32 32 33 33 34 35 34 34 35 36 36 36 35 34 33 31 31 31 31 31 32 33 35 38 40 41 41 41 43
25 25 25 27 28 27 25 23 20 18 18 17 18 19 19 19 19 19 19 19 19 21 23 25 28 31 34 36 38 39 39 38 37 36 36 36 36 36 37 36 36 36 36 36 35 35 37 37 37 36 36 34 33 32 32 32 31 32 32 32 32 32 31 32 33 35 34 33 31 30 29 27 27 27 28 28 28 29 31 34 34 35 37 38 41
23 22 21 22 23 23 22 20 18 16 15 14 14 16 17 17 17 17 17 16 16 17 17 18 19 20 22 24 27 30 32 34 35 35 36 36 36 38 39 39 38 38 38 37 36 36 37 38 37 37 36 34 33 31 31 30 30 30 31 31 31 30 29 29 30 30 29 28 28 27 26 25 25 25 25 26 27 28 30 31 32 34 36 37 40
22 21 20 19 20 19 18 17 15 13 12 11 10 11 12 13 14 14 15 15 15 16 16 16 17 17 18 18 19 21 24 26 27 29 31 33 34 36 38 39 39 39 39 38 37 37 37 37 37 36 35 34 32 31 30 29 28 28 29 29 29 28 27 26 27 27 26 26 26 25 25 26 26 26 28 30 31 32 33 34 34 36 36 36 38
20 19 18 18 18 16 15 13 12 10 8 7 7 7 7 8 9 10 12 12 13 14 15 15 16 16 17 17 17 18 19 21 23 23 24 25 27 30 33 35 37 38 38 38 37 37 37 36 36 35 34 32 31 29 28 27 27 27 27 27 27 26 25 24 25 25 24 24 24 24 27 29 31 31 32 33 34 34 35 36 36 37 37 36 37
18 17 15 15 15 14 13 11 10 9 7 5 4 4 4 6 7 8 9 9 9 10 12 12 13 14 16 17 17 18 19 20 21 21 21 21 22 24 28 31 33 35 36 36 36 36 35 35 35 33 32 30 28 26 25 25 24 24 24 25 25 25 24 24 24 24 23 23 24 27 30 31 32 33 33 34 34 35 35 34 33 32 32 32 31
16 15 14 14 14 13 12 10 10 9 7 5 4 3 1 2 4 6 7 7 7 8 8 9 9 11 13 16 17 18 19 21 21 20 20 20 20 22 24 27 28 29 30 32 32 33 32 31 31 30 29 27 25 23 22 22 22 21 21 21 21 21 20 21 22 22 22 23 25 26 28 28 28 29 30 30 30 30 28 27 27 27 27 28 28
15 14 14 14 14 13 13 12 12 10 8 7 6 5 3 2 3 5 5 6 7 7 7 7 7 9 11 14 16 17 19 20 20 20 21 21 21 21 22 23 24 25 26 27 27 26 25 25 25 25 25 24 22 21 20 19 19 18 18 18 18 18 18 20 21 22 22 23 23 23 23 24 24 24 24 24 24 24 24 25 26 27 27 27 26
14 12 12 12 12 12 12 13 14 13 12 10 9 7 6 4 3 4 4 4 5 6 6 6 6 6 9 12 14 15 17 19 19 20 21 21 21 20 20 21 22 22 22 22 22 21 19 19 20 21 21 20 19 17 17 18 18 18 18 19 19 19 20 21 21 22 22 22 22 21 21 21 21 20 21 22 23 24 26 26 26 26 25 25 26
15 12 11 11 11 10 11 12 12 13 13 13 11 10 8 6 5 4 3 2 2 3 5 5 5 5 7 10 13 14 16 17 18 19 20 20 20 19 19 20 20 20 20 19 19 18 16 16 18 19 19 18 18 17 18 19 20 20 20 20 21 20 20 20 20 19 20 20 20 19 18 18 18 19 20 22 23 23 24 24 24 24 24 25 25
Wind_Direction
203 202 204 205 206 206 206 207 207 208 211 213 213 214 215 215 215 215 216 217 217 218 216 212 209 208 209 209 211 211 209 208 210 210 210 211 211 210 211 213 218 217 213 214 215 215 214 215 216 216 221 224 217 212 217 210 196 196 195 189 186 178 167 162 162 164 166 163 151 143 141 140 143 135 129 123 113 129 101 69 49 43 40 32 33
200 201 203 205 206 206 206 207 207 207 209 213 214 215 214 214 215 215 214 215 217 217 215 212 209 209 210 211 212 212 210 210 212 212 212 213 212 211 210 214 220 222 219 217 218 217 215 216 218 221 225 225 220 217 215 213 205 202 200 195 196 194 180 172 179 184 189 184 166 158 159 162 169 171 173 172 176 182 143 80 31 31 41 42 49
197 199 201 203 205 205 205 206 207 208 210 212 215 216 215 215 215 215 214 215 216 216 214 213 211 210 213 214 213 212 213 213 214 216 216 215 214 210 208 214 221 225 224 220 220 219 217 218 219 221 225 225 224 224 221 215 208 205 203 196 198 203 193 182 185 191 195 182 167 169 175 180 191 198 204 215 220 214 197 202 336 9 31 40 44
197 198 198 200 202 203 204 205 206 208 210 211 213 215 215 216 216 216 216 216 215 214 214 213 212 211 213 216 216 216 215 216 218 220 219 218 217 212 208 211 218 223 224 223 222 221 219 216 217 219 221 225 227 228 225 219 210 204 203 199 197 202 202 195 193 196 203 192 173 170 177 187 201 206 207 214 220 223 219 226 254 320 12 32 37
197 197 199 199 201 203 204 205 206 207 209 211 213 214 215 216 217 218 218 217 216 215 213 213 213 212 212 213 215 217 217 218 220 220 219 218 218 216 211 208 213 218 221 223 223 222 220 217 217 218 218 223 228 230 228 223 215 209 209 206 202 203 202 200 198 196 207 211 202 185 178 193 208 208 212 215 214 219 220 223 237 263 320 14 38
199 199 200 201 202 203 204 205 206 208 210 212 214 216 216 217 217 218 219 218 217 216 214 213 213 212 211 211 212 214 217 218 219 217 216 217 217 216 213 209 211 215 218 221 223 223 221 219 219 218 218 221 227 231 231 227 217 213 215 211 208 208 203 200 198 194 197 207 217 212 199 209 216 207 210 212 209 217 220 221 230 243 263 291 20
202 202 202 201 202 202 204 206 207 209 211 212 214 216 217 217 217 217 219 219 218 217 215 214 214 214 213 213 213 214 216 217 218 217 217 219 219 218 215 212 212 215 218 220 222 224 223 222 221 220 219 219 223 228 230 229 222 217 218 212 211 217 216 209 202 201 201 198 209 213 208 220 226 215 213 211 207 213 217 220 227 234 242 251 290
202 203 203 202 202 202 204 206 208 210 210 211 212 215 216 217 217 217 218 219 219 218 217 216 215 215 215 215 216 217 218 218 217 217 219 220 220 220 218 216 215 216 219 223 225 226 227 227 223 222 221 219 221 224 226 229 226 221 220 213 212 218 224 218 205 203 207 203 202 201 201 215 223 221 223 224 221 217 216 219 224 228 236 241 248
203 203 203 202 203 204 206 207 208 209 210 210 212 214 215 216 217 217 217 218 219 219 218 217 217 217 217 217 218 218 220 220 219 218 219 220 221 222 221 219 219 219 220 224 227 228 230 230 227 223 222 222 222 221 221 225 226 225 223 219 217 218 222 218 206 203 207 207 203 199 199 208 214 220 223 225 231 230 224 223 222 224 234 239 240
205 205 204 204 204 206 206 207 207 208 209 211 212 213 214 215 215 216 217 218 219 220 220 219 219 219 219 219 220 220 220 221 221 220 220 221 221 222 223 222 221 222 221 222 225 227 229 230 228 225 223 224 225 222 221 224 227 227 226 225 222 221 221 220 212 207 209 213 213 211 213 214 214 219 220 220 229 237 237 241 238 233 240 247 249
206 206 206 205 206 206 205 206 207 208 209 209 211 213 213 214 214 215 218 219 219 220 220 220 219 220 221 221 222 222 221 221 222 221 221 221 222 223 224 224 224 224 222 221 222 224 227 228 227 225 224 225 225 223 222 224 228 229 228 227 223 222 223 224 223 218 213 214 219 222 223 221 219 224 226 224 231 240 241 247 252 247 250 256 263
205 206 205 204 205 205 204 205 207 207 207 208 209 211 212 213 214 215 217 218 220 221 221 220 219 220 222 223 224 224 223 223 223 223 222 222 223 224 224 224 225 225 224 223 221 221 224 225 226 225 224 225 225 223 223 225 229 229 229 227 223 223 225 227 230 228 223 217 216 220 223 223 224 230 235 234 240 249 247 252 262 256 252 254 259
205 205 204 203 203 204 204 204 205 206 206 207 208 209 210 212 213 214 216 217 219 220 221 220 220 221 222 224 225 225 225 225 225 225 225 224 225 226 225 225 224 223 223 222 220 218 221 223 225 225 223 224 226 225 224 225 228 229 230 229 226 227 229 232 235 235 235 231 224 224 225 225 225 230 237 237 242 248 247 255 264 258 255 258 259
205 205 204 203 204 204 204 204 205 206 207 207 208 209 209 211 212 214 216 218 219 220 220 221 220 221 222 224 225 225 226 227 227 227 226 226 226 228 229 228 227 225 224 223 221 220 223 224 225 226 226 225 226 227 226 226 228 230 230 231 232 231 232 236 239 239 240 239 236 235 232 229 227 231 235 235 237 240 242 250 255 253 254 255 255
204 205 205 205 205 204 204 204 205 206 206 207 208 208 209 210 212 213 216 217 218 219 220 221 221 221 222 223 225 226 227 228 229 228 228 227 227 229 231 231 231 230 228 228 227 227 226 226 224 226 227 227 226 226 228 227 228 230 231 232 234 234 234 235 239 240 240 240 240 241 238 233 230 232 236 238 239 239 242 246 246 245 250 252 253
203 204 206 207 206 205 204 205 206 206 206 207 207 208 209 210 212 213 215 217 218 219 220 222 223 222 222 224 225 226 228 229 230 229 229 229 229 230 232 234 234 235 234 233 233 232 230 228 226 225 227 229 228 226 228 229 230 231 232 233 233 234 235 235 237 239 241 241 241 241 240 237 235 238 242 244 243 240 242 244 242 242 248 254 256
203 204 206 207 206 205 206 205 206 205 206 208 208 209 210 210 212 213 214 216 218 219 220 222 223 223 223 224 226 227 228 228 229 229 229 230 230 231 233 235 236 237 236 235 234 234 231 228 227 227 227 229 230 228 228 229 231 233 234 235 235 235 236 237 237 239 242 242 242 242 242 239 237 240 244 246 244 241 239 241 243 245 248 252 257
205 205 206 207 206 205 205 206 207 207 208 209 209 210 210 211 212 213 213 215 217 219 220 222 222 223 224 225 226 227 228 228 229 230 230 231 231 231 232 234 236 236 236 234 235 235 231 227 228 229 228 228 231 231 230 230 231 233 235 236 237 238 239 239 238 240 240 241 242 242 243 240 236 238 243 246 247 243 238 238 244 247 247 249 254
205 206 205 206 206 206 205 206 207 208 209 210 210 210 210 211 212 214 215 216 217 218 219 221 223 223 224 225 227 228 228 229 230 231 232 232 232 231 232 233 235 236 235 234 235 234 231 228 228 229 228 227 230 232 232 231 232 233 234 235 236 238 240 240 240 240 241 242 242 242 244 243 239 240 243 246 249 247 240 238 242 246 247 249 254
204 205 204 205 207 207 206 207 207 208 209 209 209 209 210 211 212 213 215 216 216 218 219 221 222 224 225 226 227 228 229 230 231 231 232 232 232 232 232 233 234 235 235 236 237 233 230 228 227 228 227 226 228 229 231 232 232 233 234 235 235 237 240 242 241 242 242 243 245 245 246 247 245 245 246 246 248 249 245 240 240 243 245 248 253
203 204 204 206 208 207 206 207 207 208 208 208 208 209 210 211 211 212 214 214 216 217 219 221 222 224 225 227 228 228 229 230 231 232 232 231 232 232 233 233 234 235 236 237 237 234 230 229 229 229 228 228 228 228 230 232 233 234 235 236 237 237 240 243 243 243 243 244 247 248 249 250 250 250 250 250 248 248 247 244 241 240 241 245 250
203 204 204 205 206 206 205 206 206 206 206 207 208 209 210 211 212 213 213 214 216 218 219 221 222 224 225 227 229 230 230 231 231 232 231 230 231 231 232 233 234 235 237 237 237 235 233 232 232 233 233 232 232 231 232 233 235 237 238 239 239 240 241 243 244 245 245 245 247 249 251 252 252 253 254 253 252 249 247 245 244 244 244 244 246
204 204 204 203 204 204 203 204 204 204 206 206 207 209 210 211 212 212 213 214 216 218 220 221 222 224 226 228 230 232 232 233 233 233 232 230 230 230 231 233 234 235 237 238 237 236 236 235 235 236 236 235 234 234 234 235 236 238 240 242 242 243 243 244 246 248 248 249 249 250 252 253 254 255 255 255 255 254 251 248 248 249 250 250 249
204 203 202 202 201 200 201 203 203 204 206 206 207 208 210 211 212 212 214 215 216 218 219 221 222 225 227 228 230 231 233 234 234 235 234 232 230 231 231 232 233 235 236 238 238 237 237 238 239 238 238 237 236 236 235 235 237 238 240 242 244 245 246 246 247 250 252 253 254 254 255 256 256 257 258 257 258 258 257 256 254 253 254 255 255
203 201 200 198 197 197 199 203 203 204 205 206 206 208 209 210 211 213 215 216 216 217 218 220 222 224 226 228 229 231 232 233 235 236 236 234 233 233 233 233 233 234 236 237 238 239 239 240 240 240 240 240 240 240 240 239 239 239 240 241 243 244 246 247 248 251 252 254 256 257 258 259 259 259 260 260 260 261 262 262 261 261 260 260 260
200 198 197 196 195 196 200 203 203 204 205 206 207 208 209 210 212 213 215 215 215 216 217 219 222 223 225 227 229 230 232 233 235 236 237 237 236 235 235 235 235 235 236 237 238 239 240 241 240 240 241 242 243 244 245 245 244 244 243 243 243 244 245 247 249 250 251 253 255 257 259 259 260 260 261 261 261 263 263 264 265 265 265 265 264
198 196 194 194 194 196 200 203 203 204 205 206 207 208 209 210 212 213 214 215 215 216 217 219 221 223 225 228 229 231 232 234 236 237 238 238 237 237 237 236 236 236 236 237 238 239 240 241 241 241 242 243 244 246 247 248 248 248 247 247 247 247 248 249 251 251 252 253 254 256 258 258 259 260 261 262 262 263 264 265 266 267 268 266 266
195 193 192 193 193 196 199 202 203 204 205 206 207 208 209 210 211 213 213 214 215 216 217 219 221 223 225 228 230 231 232 234 236 238 239 239 238 238 238 238 238 238 237 238 238 239 241 241 242 242 243 245 246 246 247 247 248 249 249 250 250 251 252 253 254 255 255 256 256 257 258 258 259 260 261 262 263 264 265 265 266 267 268 267 267
190 191 192 193 194 195 198 202 203 203 204 205 206 207 208 210 212 213 214 215 215 216 218 219 220 222 225 228 230 231 232 233 235 237 239 239 239 239 239 239 238 238 238 238 239 240 241 242 243 244 245 247 248 248 247 248 249 249 250 251 251 253 254 256 257 258 258 259 259 259 259 260 260 261 262 263 263 263 264 265 266 267 268 269 268
189 192 193 194 196 197 198 201 201 202 203 204 205 207 208 210 212 213 214 215 215 216 217 218 219 223 226 228 229 231 232 233 234 236 239 240 240 240 240 240 240 239 239 239 239 240 241 242 244 245 247 248 248 249 249 250 251 251 252 254 255 256 257 258 259 260 261 262 262 262 263 263 264 264 264 265 265 264 264 265 266 267 268 269 270
190 192 193 195 197 197 198 199 200 202 203 204 206 208 209 210 211 213 214 214 215 216 218 219 221 225 227 228 229 231 232 233 234 236 238 240 240 240 240 241 241 241 241 240 240 240 241 242 244 245 247 249 249 250 251 252 254 254 255 256 257 259 260 261 262 263 264 265 266 267 268 268 269 269 268 268 268 267 267 267 267 268 268 269 271
190 192 193 195 195 196 197 199 201 202 203 206 208 208 209 211 212 213 214 213 214 216 218 219 223 226 228 229 230 231 232 233 235 236 238 240 241 241 241 241 242 242 242 242 241 241 241 242 243 245 246 248 250 251 253 254 256 257 258 259 260 261 263 263 264 266 267 269 269 271 272 273 273 273 274 274 273 272 272 271 270 270 270 270 270
191 191 193 194 195 197 199 201 202 203 206 209 210 211 213 214 213 212 212 212 213 216 217 220 225 228 230 230 232 233 234 235 237 238 239 241 241 242 242 242 243 243 243 243 244 243 243 243 244 245 246 248 250 251 253 255 257 258 259 260 261 262 264 265 267 268 270 272 272 273 274 276 277 277 278 278 277 278 278 277 276 275 273 272 272
190 191 192 193 195 198 200 202 203 205 208 210 211 214 216 215 213 211 212 212 213 215 218 223 228 230 231 232 233 235 236 237 239 240 241 242 242 243 244 245 245 245 245 245 245 245 245 245 245 246 247 249 250 251 253 255 257 259 260 261 261 262 263 265 268 269 271 273 274 275 276 277 279 279 279 280 280 280 281 281 280 279 277 277 276
186 188 190 192 194 197 199 202 204 205 207 208 210 213 214 213 213 213 214 214 214 217 221 226 229 231 232 233 234 235 237 238 240 241 241 242 243 244 245 246 246 246 247 248 248 248 247 247 247 248 250 251 251 252 254 255 257 259 261 261 262 262 263 265 267 269 270 272 274 275 276 278 279 279 280 281 282 283 283 283 282 281 282 282 280
182 186 188 190 194 197 199 201 203 204 206 208 210 211 212 214 215 215 216 217 217 219 223 226 229 230 232 233 234 235 237 239 240 241 241 242 243 244 245 245 246 246 248 249 249 249 249 249 249 250 251 252 253 253 255 256 258 260 261 261 262 263 264 265 267 268 270 271 273 274 275 277 278 279 280 282 283 284 284 283 282 283 283 284 283
172 177 181 185 190 195 197 198 200 202 207 209 210 211 212 214 215 216 217 219 220 221 224 227 229 231 232 233 234 235 237 239 239 240 241 241 242 243 244 244 244 245 246 246 247 249 249 250 251 252 253 254 254 255 256 257 259 260 260 261 262 263 265 266 267 269 270 271 272 273 274 276 277 278 279 281 282 282 282 282 282 282 283 284 284
155 162 166 172 180 185 188 192 195 199 206 210 211 212 213 213 214 215 216 218 221 223 226 229 231 233 235 236 237 237 238 239 239 240 242 243 243 244 244 245 244 245 246 247 249 250 251 252 252 253 254 256 257 258 258 259 261 261 261 262 263 265 266 267 269 269 270 271 271 272 272 273 275 277 278 280 281 280 280 280 281 282 282 282 282
137 147 152 155 162 166 170 178 185 190 198 206 209 210 213 215 217 219 220 222 225 227 230 232 235 238 239 239 240 240 241 241 241 242 244 245 246 246 246 247 247 248 249 250 251 251 252 253 253 254 256 257 259 260 260 261 262 262 262 263 264 265 266 267 269 270 271 272 273 274 274 274 276 279 280 280 280 279 278 279 280 280 280 280 281
121 131 137 140 148 153 155 160 166 169 177 189 197 201 207 213 218 221 225 229 231 233 235 236 237 239 241 242 242 242 242 243 243 245 247 247 248 248 248 248 249 250 252 252 252 252 253 254 255 256 257 258 259 261 262 262 263 263 263 264 264 264 266 268 270 271 273 275 276 277 279 279 281 282 282 282 281 280 279 279 279 278 278 280 283
114 122 129 134 139 143 144 147 150 153 157 165 174 183 192 201 208 213 219 225 230 232 234 235 236 236 238 240 243 244 245 246 247 248 249 249 249 249 249 249 251 252 253 253 254 254 254 255 256 256 258 259 261 262 263 264 265 265 265 265 264 265 268 270 272 273 274 276 278 280 282 284 285 286 286 285 284 283 282 281 280 279 280 284 285
110 117 126 131 132 133 135 136 139 147 153 156 162 169 175 183 192 199 206 214 220 226 230 233 235 236 238 239 241 243 245 247 248 250 250 251 251 251 250 251 251 252 253 254 255 255 255 256 256 256 257 259 261 262 264 265 266 266 266 266 266 268 270 271 272 273 274 276 279 282 285 287 288 288 288 288 287 287 286 284 284 285 286 289 287
102 107 115 122 124 123 123 123 127 139 149 157 167 172 173 179 185 191 197 203 209 217 223 229 234 236 239 240 242 243 244 245 247 248 250 251 252 252 251 250 250 250 252 253 255 255 255 255 256 256 256 258 260 262 264 266 267 268 267 267 268 270 271 271 271 272 274 277 280 283 286 287 288 287 288 288 288 288 287 286 288 291 291 293 291
94 95 100 109 113 114 114 114 116 125 136 148 164 175 181 187 191 196 202 206 210 216 221 225 230 234 238 241 243 244 244 245 246 247 247 248 250 250 250 250 250 250 250 251 253 254 254 254 255 256 257 258 260 261 263 266 267 268 268 269 269 270 270 269 270 271 274 277 279 281 283 283 283 283 284 285 285 285 286 287 289 291 292 292 292
88 89 91 94 99 103 108 111 113 117 126 136 149 165 179 188 196 204 210 215 220 226 229 231 232 235 239 244 246 245 244 244 244 244 245 245 246 247 248 248 249 249 249 250 252 253 254 254 255 257 259 260 261 262 264 267 268 268 269 268 269 269 268 267 267 267 270 272 274 277 279 278 278 279 281 283 285 286 287 289 290 292 293 293 294
78 81 85 89 93 96 99 104 107 110 119 130 143 160 177 190 202 211 217 223 230 234 238 239 238 237 237 238 242 244 244 242 241 241 244 245 245 245 246 247 248 249 249 250 251 252 254 255 256 258 259 261 263 264 266 268 268 267 267 266 265 265 263 262 262 263 266 269 269 271 272 273 276 279 281 284 286 287 288 290 291 291 292 293 294
67 73 78 83 88 88 88 91 92 90 92 106 128 157 183 201 214 222 224 227 234 241 246 245 240 236 233 230 232 236 237 237 237 237 240 242 243 244 245 246 247 248 249 250 250 251 253 254 256 258 260 262 263 264 264 265 265 265 265 265 264 263 261 259 259 260 262 263 264 266 270 273 276 279 280 281 283 285 286 287 289 290 291 293 295
58 64 70 74 78 78 77 80 80 77 75 78 83 87 145 221 233 239 236 233 237 245 255 255 242 233 231 229 229 231 232 232 230 230 232 234 236 239 242 244 247 249 251 252 253 254 256 258 259 261 261 261 260 259 260 261 262 263 264 263 261 260 259 257 256 256 257 259 262 265 269 272 273 275 276 277 279 281 284 287 289 291 292 293 295
53 57 61 66 72 72 70 70 70 66 59 57 57 44 18 334 279 266 257 246 241 243 256 264 252 234 231 232 231 230 229 227 224 224 225 225 226 231 236 240 244 247 251 254 257 259 262 264 265 264 262 260 259 258 257 257 258 257 255 253 252 253 254 254 253 253 255 257 259 260 262 263 266 268 271 275 278 281 285 287 288 289 291 293 296
50 56 59 60 64 66 64 64 62 55 48 47 44 34 19 0 330 306 288 263 245 241 249 262 264 248 236 234 232 228 227 226 225 225 225 222 222 226 231 236 239 242 247 251 255 259 263 265 264 262 260 259 258 255 252 251 251 250 249 248 249 250 251 250 249 249 251 252 253 253 255 258 263 268 274 278 281 283 284 284 286 288 291 295 299
34 41 49 51 53 54 55 60 58 50 45 43 38 32 22 11 6 2 351 325 273 253 248 254 264 259 241 236 234 230 227 227 227 227 226 225 223 224 227 232 237 240 243 245 248 251 254 254 255 255 255 254 251 247 246 247 249 248 248 248 247 246 247 246 244 244 244 244 247 251 256 264 270 275 278 279 280 281 283 285 288 291 295 301 306